Location: Dominguez Junction
(33.8634°N, 118.2179°W)
Time: 18:36:06
(UTC+00:00)

Cosmos 1400 Rocket - Pass Details

Date: 29 October 2020
Orbit: 521 x 568 km, 81.2° (Epoch: 24 November)

Event Time Altitude Azimuth Distance (km) Brightness Sun altitude
Rises 12:45:28 0° 352° (N) 2,680 6.2 -18.1°
Reaches altitude 10° 12:47:39 10° 353° (N) 1,780 5.3 -17.6°
Maximum altitude 12:51:33 86° 80° (E) 531 2.7 -16.8°
Drops below altitude 10° 12:55:24 10° 172° (S) 1,750 5.6 -16.0°
Sets 12:57:31 0° 172° (S) 2,632 6.5 -15.6°
